Weather History for KRIW - May, 2014

Change the Weather History Date:

Saturday, May 3, 2014

  Actual Average Record
Temperature  
Mean Temperature 63 °F 50 °F  
Max Temperature 82 °F 63 °F 82 °F (2014)
Min Temperature 44 °F 36 °F 25 °F (2008)
Degree Days  
Heating Degree Days 2 15  
Month to date heating degree days 29 47  
Since 1 July heating degree days 7445 7443  
Cooling Degree Days 0 0  
Month to date cooling degree days 0 0  
Year to date cooling degree days 0 0  
Growing Degree Days 12 (Base 50)    
Moisture  
Dew Point 18 °F    
Average Humidity 24    
Maximum Humidity 41    
Minimum Humidity 7    
Precipitation  
Precipitation 0.00 in 0.05 in 0.10 in (2009)
Month to date precipitation 0.00 0.17  
Year to date precipitation 1.62 2.53  
Snow  
Snow 0.00 in - - ()
Month to date snowfall 0.0  
Since 1 July snowfall 53.1  
Snow Depth 0.00 in    
Sea Level Pressure  
Sea Level Pressure 29.71 in    
Wind  
Wind Speed 12 mph (West)    
Max Wind Speed 32 mph    
Max Gust Speed 42 mph    
Visibility 10 miles    
Events      
T = Trace of Precipitation, MM = Missing Value Source: NWS Daily Summary

Daily Weather History Graph

Daily Weather History Graph

Search for Another Location

Airport or City:

Trip Planner

Search our weather history database for the weather conditions in past years. The results will help you decide how hot, cold, wet, or windy it might be!

Date:

Astronomy

May. 03, 2014 Rise Set
Actual Time 6:04 AM MDT 8:17 PM MDT
Civil Twilight 5:33 AM MDT 8:48 PM MDT
Nautical Twilight 4:54 AM MDT 9:27 PM MDT
Astronomical Twilight 4:12 AM MDT 10:10 PM MDT
Moon 9:35 AM MDT (5/3) No Moon Set
Length of Visible Light 15h 15m
Length of Day
14h 12m
Waxing Crescent, 20% of the Moon is Illuminated
May 3
Waxing Crescent
May 6
First Quarter
May 14
Full
May 21
Last Quarter
May 28
New

Hourly Weather History & Observations

Time (MDT) Temp. Windchill Dew Point Humidity Pressure Visibility Wind Dir Wind Speed Gust Speed Precip Events Conditions
12:53 AM 54.0 °F - 21.9 °F 29% 29.79 in 10.0 mi SW 8.1 mph - N/A   Clear
1:53 AM 51.1 °F - 21.9 °F 32% 29.78 in 10.0 mi NNW 5.8 mph - N/A   Clear
2:53 AM 51.1 °F - 21.9 °F 32% 29.75 in 10.0 mi Calm Calm - N/A   Clear
3:53 AM 48.2 °F - 21.2 °F 34% 29.92 in 10.0 mi NW 6.9 mph - N/A   Clear
4:53 AM 46.0 °F 41.0 °F 21.0 °F 37% 29.77 in 10.0 mi NNW 10.4 mph - N/A   Clear
5:53 AM 45.0 °F 41.2 °F 21.9 °F 40% 29.79 in 10.0 mi WNW 6.9 mph - N/A   Clear
6:53 AM 44.1 °F 40.1 °F 23.0 °F 43% 29.81 in 10.0 mi West 6.9 mph - N/A   Clear
7:53 AM 57.0 °F - 26.1 °F 30% 29.78 in 10.0 mi Variable 3.5 mph - N/A   Clear
8:53 AM 62.1 °F - 25.0 °F 24% 29.77 in 10.0 mi NNE 3.5 mph - N/A   Clear
9:53 AM 64.9 °F - 25.0 °F 22% 29.75 in 10.0 mi East 4.6 mph - N/A   Clear
10:53 AM 68.0 °F - 23.0 °F 18% 29.75 in 10.0 mi Variable 6.9 mph - N/A   Clear
11:53 AM 75.9 °F - 16.0 °F 10% 29.68 in 10.0 mi WSW 15.0 mph 26.5 mph N/A   Clear
12:53 PM 79.0 °F - 12.9 °F 8% 29.65 in 10.0 mi West 31.1 mph 39.1 mph N/A   Clear
1:53 PM 78.8 °F - 12.2 °F 8% 29.83 in 10.0 mi West 24.2 mph 32.2 mph N/A   Clear
2:53 PM 81.0 °F - 12.0 °F 7% 29.62 in 10.0 mi West 19.6 mph 32.2 mph N/A   Clear
3:53 PM 80.1 °F - 10.9 °F 7% 29.62 in 10.0 mi West 21.9 mph 35.7 mph N/A   Clear
4:53 PM 79.0 °F - 12.9 °F 8% 29.62 in 10.0 mi WSW 19.6 mph 31.1 mph N/A   Clear
5:53 PM 77.0 °F - 14.0 °F 9% 29.63 in 10.0 mi WSW 21.9 mph 31.1 mph N/A   Clear
6:53 PM 75.0 °F - 12.9 °F 9% 29.63 in 10.0 mi WSW 20.7 mph - N/A   Clear
7:53 PM 71.1 °F - 8.1 °F 9% 29.61 in 10.0 mi WSW 19.6 mph 28.8 mph N/A   Clear
8:53 PM 66.9 °F - 8.1 °F 10% 29.63 in 10.0 mi WSW 15.0 mph - N/A   Clear
9:53 PM 62.1 °F - 10.0 °F 13% 29.65 in 10.0 mi WNW 12.7 mph - N/A   Clear
10:53 PM 60.1 °F - 10.9 °F 14% 29.65 in 10.0 mi NW 9.2 mph - N/A   Clear
11:53 PM 53.1 °F - 28.9 °F 40% 29.64 in 10.0 mi NW 5.8 mph - N/A   Clear